This is the latest recevied weather packets stored in our database for station/object DB0RV-13. If no packets are shown the sender has not sent any weather packets the latest 10 day(s).
| Time | Temp. | Humidity | Pressure | Rain* | Wind** | Luminosity | Snow |
|---|---|---|---|---|---|---|---|
| 1778048702 | 9.44° C | 94% | 1006.4 hPa | - | - | - | - |
| 1778048402 | 9.44° C | 94% | 1006.2 hPa | - | - | - | - |
| 1778048102 | 9.44° C | 95% | 1006.1 hPa | - | - | - | - |
| 1778047801 | 8.89° C | 96% | 1006.3 hPa | - | - | - | - |
| 1778047502 | 8.89° C | 95% | 1006.2 hPa | - | - | - | - |
| 1778047201 | 8.33° C | 96% | 1006 hPa | - | - | - | - |
| 1778046902 | 8.33° C | 95% | 1005.9 hPa | - | - | - | - |
| 1778046601 | 8.33° C | 95% | 1006 hPa | - | - | - | - |
| 1778046302 | 8.33° C | 94% | 1006 hPa | - | - | - | - |
| 1778046002 | 8.89° C | 94% | 1006.1 hPa | - | - | - | - |
| 1778045702 | 8.89° C | 94% | 1006.1 hPa | - | - | - | - |
| 1778045402 | 8.89° C | 95% | 1006.3 hPa | - | - | - | - |
| 1778045102 | 8.89° C | 95% | 1006.3 hPa | - | - | - | - |
| 1778044802 | 8.89° C | 95% | 1006.3 hPa | - | - | - | - |
| 1778044502 | 8.89° C | 96% | 1006.2 hPa | - | - | - | - |
| 1778044202 | 8.33° C | 96% | 1006.2 hPa | - | - | - | - |
| 1778043901 | 8.33° C | 96% | 1006.3 hPa | - | - | - | - |
| 1778043602 | 8.33° C | 97% | 1006.4 hPa | - | - | - | - |
| 1778043301 | 7.78° C | 97% | 1006.4 hPa | - | - | - | - |
| 1778043002 | 7.78° C | 97% | 1006.4 hPa | - | - | - | - |
| 1778042701 | 8.33° C | 97% | 1006.4 hPa | - | - | - | - |
| 1778042402 | 7.78° C | 97% | 1006.3 hPa | - | - | - | - |
| 1778042102 | 7.22° C | 97% | 1006.3 hPa | - | - | - | - |
| 1778041802 | 7.22° C | 97% | 1006.5 hPa | - | - | - | - |
| 1778041502 | 7.78° C | 96% | 1006.6 hPa | - | - | - | - |
* Rain since midnight (hover to see other rain measurements)
** Current wind speed in m/s (hover to see current wind gust speed)